• In Hungary
  • List of Countries
  • For 7 days
  • Water Temperature
  • Satellite Maps
  • Weather Map
  • News
  • Weather Widgets
  • user-avatar
    Login

    Hourly Weather Eisenstadt

    Today, 18 October, Wednesday

    Time Temperature Precipitation Wind Pressure Humidity
    00:00 +12°C° 0 mm 2 mps 725 mmHg 79%
    01:00 +12°C° 0 mm 2 mps 725 mmHg 81%
    02:00 +12°C° 0 mm 2 mps 725 mmHg 81%
    03:00 +12°C° 0 mm 2 mps 724 mmHg 82%
    04:00 +10°C° 0 mm 2 mps 724 mmHg 83%
    05:00 +10°C° 0 mm 2 mps 724 mmHg 83%
    06:00 +10°C° 0 mm 2 mps 724 mmHg 84%
    07:00 +10°C° 0 mm 2 mps 723 mmHg 84%
    08:00 +13°C° 0 mm 2 mps 723 mmHg 76%
    09:00 +15°C° 0 mm 2 mps 723 mmHg 69%
    10:00 +18°C° 0 mm 2 mps 723 mmHg 61%
    11:00 +19°C° 0 mm 2 mps 723 mmHg 56%
    12:00 +20°C° 0 mm 2 mps 723 mmHg 51%
    13:00 +21°C° 0 mm 3 mps 723 mmHg 46%
    14:00 +20°C° 0 mm 2 mps 722 mmHg 50%
    15:00 +20°C° 0 mm 2 mps 722 mmHg 53%
    16:00 +19°C° 0 mm 2 mps 722 mmHg 56%
    17:00 +17°C° 0 mm 2 mps 722 mmHg 60%
    18:00 +16°C° 0 mm 1 mps 721 mmHg 65%
    19:00 +14°C° 0 mm 1 mps 721 mmHg 70%
    20:00 +14°C° 0 mm 1 mps 721 mmHg 71%
    21:00 +13°C° 0 mm 1 mps 721 mmHg 73%
    22:00 +13°C° 0 mm 1 mps 722 mmHg 74%
    23:00 +13°C° 0 mm 1 mps 722 mmHg 75%

    Tomorrow, 19 October, Thursday

    Time Temperature Precipitation Wind Pressure Humidity
    00:00 +12°C° 0 mm 1 mps 722 mmHg 76%
    01:00 +12°C° 0 mm 1 mps 722 mmHg 77%
    02:00 +12°C° 0 mm 1 mps 721 mmHg 78%
    03:00 +11°C° 0 mm 1 mps 721 mmHg 79%
    04:00 +11°C° 0 mm 1 mps 721 mmHg 80%
    05:00 +11°C° 0 mm 1 mps 721 mmHg 80%
    06:00 +11°C° 0 mm 1 mps 722 mmHg 80%
    07:00 +11°C° 0 mm 1 mps 722 mmHg 80%
    08:00 +13°C° 0 mm 1 mps 722 mmHg 73%
    09:00 +14°C° 0 mm 0 mps 722 mmHg 65%
    10:00 +17°C° 0 mm 0 mps 722 mmHg 57%
    11:00 +18°C° 0 mm 0 mps 722 mmHg 54%
    12:00 +20°C° 0 mm 1 mps 722 mmHg 51%
    13:00 +21°C° 0 mm 1 mps 722 mmHg 48%
    14:00 +21°C° 0 mm 1 mps 722 mmHg 52%
    15:00 +20°C° 0 mm 1 mps 722 mmHg 55%
    16:00 +19°C° 0 mm 1 mps 721 mmHg 59%
    17:00 +18°C° 0 mm 1 mps 722 mmHg 64%
    18:00 +15°C° 0 mm 1 mps 722 mmHg 69%
    19:00 +13°C° 0 mm 0 mps 722 mmHg 74%
    20:00 +12°C° 0 mm 0 mps 722 mmHg 76%
    21:00 +12°C° 0 mm 0 mps 722 mmHg 78%
    22:00 +11°C° 0 mm 0 mps 722 mmHg 79%
    23:00 +11°C° 0 mm 0 mps 722 mmHg 81%

    Day after tomorrow, 20 October, Friday

    Time Temperature Precipitation Wind Pressure Humidity
    00:00 +11°C° 0 mm 0 mps 722 mmHg 82%
    01:00 +10°C° 0 mm 0 mps 722 mmHg 83%
    02:00 +10°C° 0 mm 0 mps 722 mmHg 84%
    03:00 +10°C° 0 mm 0 mps 722 mmHg 85%
    04:00 +9°C° 0 mm 0 mps 722 mmHg 86%
    05:00 +9°C° 0 mm 0 mps 722 mmHg 86%
    06:00 +9°C° 0 mm 0 mps 722 mmHg 86%
    07:00 +9°C° 0 mm 0 mps 722 mmHg 86%
    08:00 +11°C° 0 mm 0 mps 723 mmHg 77%
    09:00 +15°C° 0 mm 1 mps 723 mmHg 69%
    10:00 +18°C° 0 mm 1 mps 723 mmHg 61%
    11:00 +19°C° 0 mm 1 mps 723 mmHg 58%
    12:00 +19°C° 0 mm 1 mps 723 mmHg 55%
    13:00 +20°C° 0 mm 1 mps 723 mmHg 52%
    14:00 +20°C° 0 mm 1 mps 723 mmHg 56%
    15:00 +19°C° 0 mm 1 mps 723 mmHg 59%
    16:00 +19°C° 0 mm 1 mps 722 mmHg 62%
    17:00 +16°C° 0 mm 1 mps 723 mmHg 67%
    18:00 +14°C° 0 mm 1 mps 723 mmHg 72%
    19:00 +12°C° 0 mm 0 mps 723 mmHg 78%
    20:00 +12°C° 0 mm 0 mps 723 mmHg 79%
    21:00 +12°C° 0 mm 1 mps 723 mmHg 80%
    22:00 +12°C° 0 mm 1 mps 724 mmHg 82%
    23:00 +12°C° 0 mm 1 mps 724 mmHg 83%

    21 October, Saturday

    Time Temperature Precipitation Wind Pressure Humidity
    00:00 +11°C° 0 mm 1 mps 724 mmHg 83%
    01:00 +11°C° 0 mm 1 mps 724 mmHg 84%
    02:00 +11°C° 0 mm 1 mps 724 mmHg 85%
    03:00 +11°C° 0 mm 1 mps 724 mmHg 85%
    04:00 +10°C° 0 mm 1 mps 724 mmHg 86%
    05:00 +10°C° 0 mm 1 mps 724 mmHg 86%
    06:00 +10°C° 0 mm 1 mps 724 mmHg 86%
    07:00 +10°C° 0 mm 1 mps 724 mmHg 86%
    08:00 +12°C° 0 mm 1 mps 724 mmHg 78%
    09:00 +14°C° 0 mm 1 mps 725 mmHg 70%
    10:00 +18°C° 0 mm 1 mps 725 mmHg 62%
    11:00 +18°C° 0 mm 1 mps 725 mmHg 58%
    12:00 +19°C° 0 mm 1 mps 725 mmHg 55%
    13:00 +20°C° 0 mm 1 mps 724 mmHg 52%
    14:00 +20°C° 0 mm 1 mps 724 mmHg 55%
    15:00 +19°C° 0 mm 1 mps 724 mmHg 59%
    16:00 +18°C° 0 mm 1 mps 724 mmHg 62%
    17:00 +16°C° 0 mm 1 mps 724 mmHg 67%
    18:00 +14°C° 0 mm 1 mps 724 mmHg 72%
    19:00 +13°C° 0 mm 1 mps 724 mmHg 78%
    20:00 +13°C° 0 mm 1 mps 724 mmHg 79%
    21:00 +12°C° 0 mm 1 mps 724 mmHg 80%
    22:00 +12°C° 0 mm 1 mps 724 mmHg 82%
    23:00 +12°C° 0 mm 1 mps 723 mmHg 83%

    22 October, Sunday

    Time Temperature Precipitation Wind Pressure Humidity
    00:00 +12°C° 0 mm 1 mps 723 mmHg 84%
    01:00 +11°C° 0 mm 1 mps 723 mmHg 85%
    02:00 +11°C° 0 mm 1 mps 723 mmHg 86%
    03:00 +11°C° 0 mm 1 mps 722 mmHg 86%
    04:00 +11°C° 0 mm 1 mps 722 mmHg 86%
    05:00 +11°C° 0 mm 1 mps 722 mmHg 86%
    06:00 +11°C° 0 mm 1 mps 722 mmHg 86%
    07:00 +11°C° 0 mm 1 mps 722 mmHg 86%
    08:00 +12°C° 0 mm 1 mps 722 mmHg 81%
    09:00 +14°C° 0 mm 1 mps 722 mmHg 75%
    10:00 +15°C° 0 mm 1 mps 722 mmHg 70%
    11:00 +16°C° 0 mm 1 mps 722 mmHg 69%
    12:00 +16°C° 0 mm 2 mps 721 mmHg 67%
    13:00 +17°C° 0 mm 2 mps 721 mmHg 66%
    14:00 +16°C° 0.4 mm 2 mps 721 mmHg 70%
    15:00 +14°C° 0.4 mm 3 mps 721 mmHg 75%
    16:00 +13°C° 0.4 mm 3 mps 720 mmHg 79%
    17:00 +12°C° 2.2 mm 4 mps 720 mmHg 81%
    18:00 +10°C° 2.2 mm 5 mps 720 mmHg 83%
    19:00 +9°C° 2.2 mm 7 mps 720 mmHg 85%
    20:00 +8°C° 3.9 mm 6 mps 720 mmHg 86%
    21:00 +7°C° 3.9 mm 6 mps 720 mmHg 87%
    22:00 +7°C° 3.9 mm 6 mps 720 mmHg 88%
    23:00 +7°C° 1.7 mm 6 mps 720 mmHg 87%

    23 October, Monday

    Time Temperature Precipitation Wind Pressure Humidity
    00:00 +6°C° 1.7 mm 7 mps 720 mmHg 85%
    01:00 +6°C° 1.7 mm 7 mps 720 mmHg 84%
    02:00 +6°C° 1.2 mm 7 mps 720 mmHg 84%
    03:00 +5°C° 1.2 mm 7 mps 720 mmHg 84%
    04:00 +5°C° 1.2 mm 8 mps 720 mmHg 84%
    05:00 +5°C° 1.1 mm 8 mps 720 mmHg 84%
    06:00 +5°C° 1.1 mm 8 mps 720 mmHg 84%
    07:00 +5°C° 1.1 mm 8 mps 721 mmHg 83%
    08:00 +5°C° 0.9 mm 8 mps 721 mmHg 82%
    09:00 +5°C° 0.9 mm 9 mps 721 mmHg 81%
    10:00 +5°C° 0.9 mm 9 mps 722 mmHg 80%
    11:00 +5°C° 0.9 mm 9 mps 722 mmHg 81%
    12:00 +6°C° 0.9 mm 9 mps 722 mmHg 81%
    13:00 +6°C° 0.9 mm 9 mps 722 mmHg 81%
    14:00 +6°C° 0.7 mm 9 mps 722 mmHg 81%
    15:00 +5°C° 0.7 mm 8 mps 722 mmHg 81%
    16:00 +5°C° 0.7 mm 8 mps 723 mmHg 82%
    17:00 +5°C° 0.5 mm 8 mps 723 mmHg 82%
    18:00 +5°C° 0.5 mm 8 mps 724 mmHg 82%
    19:00 +5°C° 0.5 mm 8 mps 724 mmHg 82%
    20:00 +5°C° 0.5 mm 8 mps 725 mmHg 82%
    21:00 +5°C° 0.5 mm 7 mps 725 mmHg 82%
    22:00 +5°C° 0.5 mm 7 mps 725 mmHg 82%
    23:00 +5°C° 0.2 mm 7 mps 726 mmHg 81%
    Show more